• In Hungary
  • List of Countries
  • For 7 days
  • Water Temperature
  • Satellite Maps
  • Weather Map
  • News
  • Weather Widgets
  • user-avatar
    Login

    Hourly Weather Lubomia

    Today, 11 December, Monday

    Time Temperature Precipitation Wind Pressure Humidity
    00:00 0°C° 0 mm 8 mps 727 mmHg 74%
    01:00 0°C° 0 mm 8 mps 727 mmHg 75%
    02:00 +1°C° 0 mm 8 mps 727 mmHg 76%
    03:00 +2°C° 0 mm 7 mps 727 mmHg 78%
    04:00 +2°C° 0 mm 7 mps 727 mmHg 80%
    05:00 +2°C° 0.1 mm 6 mps 727 mmHg 82%
    06:00 +2°C° 0.1 mm 6 mps 727 mmHg 83%
    07:00 +3°C° 0.1 mm 5 mps 727 mmHg 84%
    08:00 +3°C° 0 mm 5 mps 727 mmHg 84%
    09:00 +5°C° 0 mm 5 mps 727 mmHg 83%
    10:00 +5°C° 0 mm 5 mps 727 mmHg 82%
    11:00 +6°C° 0 mm 5 mps 727 mmHg 82%
    12:00 +7°C° 0 mm 6 mps 726 mmHg 82%
    13:00 +8°C° 0 mm 6 mps 726 mmHg 82%
    14:00 +8°C° 0 mm 7 mps 726 mmHg 82%
    15:00 +9°C° 0 mm 8 mps 725 mmHg 82%
    16:00 +8°C° 0 mm 9 mps 725 mmHg 81%
    17:00 +10°C° 0 mm 9 mps 725 mmHg 80%
    18:00 +9°C° 0 mm 10 mps 725 mmHg 79%
    19:00 +9°C° 0 mm 10 mps 725 mmHg 78%
    20:00 +9°C° 0 mm 10 mps 725 mmHg 76%
    21:00 +9°C° 0 mm 10 mps 725 mmHg 75%
    22:00 +9°C° 0 mm 10 mps 726 mmHg 74%
    23:00 +9°C° 0 mm 10 mps 726 mmHg 74%

    Tomorrow, 12 December, Tuesday

    Time Temperature Precipitation Wind Pressure Humidity
    00:00 +9°C° 0 mm 10 mps 726 mmHg 74%
    01:00 +9°C° 0 mm 10 mps 727 mmHg 74%
    02:00 +9°C° 0 mm 10 mps 727 mmHg 74%
    03:00 +9°C° 0 mm 10 mps 727 mmHg 75%
    04:00 +9°C° 0 mm 10 mps 728 mmHg 75%
    05:00 +10°C° 0 mm 9 mps 728 mmHg 75%
    06:00 +10°C° 0 mm 9 mps 729 mmHg 76%
    07:00 +10°C° 0 mm 8 mps 730 mmHg 76%
    08:00 +9°C° 0.1 mm 7 mps 731 mmHg 76%
    09:00 +9°C° 0.1 mm 7 mps 732 mmHg 75%
    10:00 +8°C° 0.1 mm 6 mps 733 mmHg 75%
    11:00 +8°C° 0 mm 6 mps 733 mmHg 71%
    12:00 +8°C° 0 mm 7 mps 734 mmHg 67%
    13:00 +8°C° 0 mm 7 mps 735 mmHg 63%
    14:00 +7°C° 0 mm 6 mps 736 mmHg 64%
    15:00 +6°C° 0 mm 5 mps 737 mmHg 65%
    16:00 +5°C° 0 mm 4 mps 738 mmHg 67%
    17:00 +5°C° 0.3 mm 4 mps 739 mmHg 68%
    18:00 +4°C° 0.3 mm 4 mps 739 mmHg 68%
    19:00 +4°C° 0.3 mm 3 mps 740 mmHg 69%
    20:00 +3°C° 0.2 mm 3 mps 741 mmHg 69%
    21:00 +3°C° 0.2 mm 3 mps 742 mmHg 69%
    22:00 +3°C° 0.2 mm 3 mps 742 mmHg 70%
    23:00 +2°C° 0 mm 3 mps 743 mmHg 71%

    Day after tomorrow, 13 December, Wednesday

    Time Temperature Precipitation Wind Pressure Humidity
    00:00 +2°C° 0 mm 3 mps 743 mmHg 72%
    01:00 +2°C° 0 mm 3 mps 743 mmHg 74%
    02:00 +1°C° 0 mm 3 mps 744 mmHg 75%
    03:00 +1°C° 0 mm 3 mps 744 mmHg 77%
    04:00 +1°C° 0 mm 3 mps 744 mmHg 78%
    05:00 +1°C° 0 mm 2 mps 744 mmHg 80%
    06:00 +1°C° 0 mm 2 mps 745 mmHg 81%
    07:00 +1°C° 0 mm 2 mps 745 mmHg 83%
    08:00 +1°C° 0 mm 2 mps 745 mmHg 80%
    09:00 0°C° 0 mm 3 mps 745 mmHg 77%
    10:00 +1°C° 0 mm 3 mps 746 mmHg 75%
    11:00 +1°C° 0 mm 3 mps 745 mmHg 72%
    12:00 +2°C° 0 mm 3 mps 745 mmHg 69%
    13:00 +1°C° 0 mm 4 mps 744 mmHg 66%
    14:00 +2°C° 0 mm 3 mps 744 mmHg 69%
    15:00 +1°C° 0 mm 3 mps 744 mmHg 73%
    16:00 0°C° 0 mm 3 mps 743 mmHg 77%
    17:00 0°C° 0 mm 3 mps 743 mmHg 77%
    18:00 -1°C° 0 mm 4 mps 742 mmHg 78%
    19:00 -2°C° 0 mm 4 mps 742 mmHg 78%
    20:00 -2°C° 0 mm 4 mps 741 mmHg 76%
    21:00 -1°C° 0 mm 5 mps 741 mmHg 74%
    22:00 -1°C° 0 mm 5 mps 740 mmHg 72%
    23:00 -1°C° 0 mm 5 mps 740 mmHg 73%

    14 December, Thursday

    Time Temperature Precipitation Wind Pressure Humidity
    00:00 -1°C° 0 mm 5 mps 739 mmHg 73%
    01:00 -1°C° 0 mm 5 mps 738 mmHg 73%
    02:00 -1°C° 0 mm 6 mps 738 mmHg 74%
    03:00 -1°C° 0 mm 6 mps 738 mmHg 75%
    04:00 -1°C° 0 mm 6 mps 737 mmHg 76%
    05:00 -1°C° 0 mm 6 mps 737 mmHg 78%
    06:00 -1°C° 0 mm 6 mps 736 mmHg 79%
    07:00 -1°C° 0 mm 6 mps 736 mmHg 80%
    08:00 -1°C° 0 mm 6 mps 736 mmHg 77%
    09:00 +1°C° 0 mm 6 mps 736 mmHg 75%
    10:00 +2°C° 0 mm 7 mps 736 mmHg 72%
    11:00 +2°C° 0 mm 6 mps 736 mmHg 72%
    12:00 +2°C° 0 mm 6 mps 736 mmHg 73%
    13:00 +3°C° 0 mm 5 mps 735 mmHg 73%
    14:00 +2°C° 0 mm 5 mps 735 mmHg 75%
    15:00 +2°C° 0 mm 5 mps 734 mmHg 78%
    16:00 +1°C° 0 mm 4 mps 734 mmHg 81%
    17:00 +1°C° 0.2 mm 4 mps 733 mmHg 81%
    18:00 +1°C° 0.2 mm 4 mps 733 mmHg 82%
    19:00 +1°C° 0.2 mm 5 mps 732 mmHg 82%
    20:00 +1°C° 0.1 mm 5 mps 732 mmHg 81%
    21:00 +2°C° 0.1 mm 5 mps 731 mmHg 80%
    22:00 +2°C° 0.1 mm 6 mps 730 mmHg 79%
    23:00 +2°C° 0.1 mm 6 mps 729 mmHg 80%

    15 December, Friday

    Time Temperature Precipitation Wind Pressure Humidity
    00:00 +3°C° 0.1 mm 6 mps 728 mmHg 80%
    01:00 +3°C° 0.1 mm 5 mps 727 mmHg 81%
    02:00 +3°C° 0.2 mm 5 mps 728 mmHg 82%
    03:00 +3°C° 0.2 mm 5 mps 728 mmHg 83%
    04:00 +3°C° 0.2 mm 5 mps 728 mmHg 85%
    05:00 +3°C° 0.3 mm 5 mps 729 mmHg 82%
    06:00 +3°C° 0.3 mm 4 mps 730 mmHg 80%
    07:00 +3°C° 0.3 mm 4 mps 731 mmHg 78%
    08:00 +3°C° 0 mm 4 mps 732 mmHg 74%
    09:00 +3°C° 0 mm 4 mps 733 mmHg 71%
    10:00 +1°C° 0 mm 4 mps 734 mmHg 67%
    11:00 +3°C° 0 mm 4 mps 734 mmHg 65%
    12:00 +3°C° 0 mm 4 mps 734 mmHg 62%
    13:00 +3°C° 0 mm 4 mps 734 mmHg 60%
    14:00 +3°C° 0 mm 4 mps 735 mmHg 64%
    15:00 +2°C° 0 mm 3 mps 735 mmHg 68%
    16:00 +2°C° 0 mm 3 mps 735 mmHg 72%
    17:00 +1°C° 0 mm 3 mps 735 mmHg 74%
    18:00 +2°C° 0 mm 2 mps 735 mmHg 76%
    19:00 +2°C° 0 mm 2 mps 735 mmHg 77%
    20:00 +2°C° 0 mm 2 mps 735 mmHg 78%
    21:00 +2°C° 0 mm 2 mps 735 mmHg 78%
    22:00 +3°C° 0 mm 1 mps 735 mmHg 78%
    23:00 +2°C° 0 mm 1 mps 735 mmHg 78%

    16 December, Saturday

    Time Temperature Precipitation Wind Pressure Humidity
    00:00 +2°C° 0 mm 1 mps 735 mmHg 78%
    01:00 +1°C° 0 mm 0 mps 735 mmHg 78%
    02:00 +2°C° 0 mm 1 mps 735 mmHg 78%
    03:00 +2°C° 0 mm 1 mps 735 mmHg 79%
    04:00 +2°C° 0 mm 1 mps 735 mmHg 79%
    05:00 +2°C° 0 mm 1 mps 735 mmHg 80%
    06:00 +1°C° 0 mm 1 mps 735 mmHg 82%
    07:00 +1°C° 0 mm 1 mps 735 mmHg 83%
    08:00 +1°C° 0 mm 1 mps 735 mmHg 81%
    09:00 +2°C° 0 mm 1 mps 736 mmHg 78%
    10:00 +3°C° 0 mm 1 mps 736 mmHg 75%
    11:00 +3°C° 0 mm 1 mps 736 mmHg 72%
    12:00 +4°C° 0 mm 1 mps 736 mmHg 70%
    13:00 +4°C° 0 mm 1 mps 736 mmHg 67%
    14:00 +3°C° 0 mm 1 mps 736 mmHg 71%
    15:00 +3°C° 0 mm 1 mps 737 mmHg 75%
    16:00 +2°C° 0 mm 1 mps 737 mmHg 79%
    17:00 +2°C° 0 mm 1 mps 738 mmHg 79%
    18:00 +2°C° 0 mm 1 mps 738 mmHg 80%
    19:00 +2°C° 0 mm 1 mps 739 mmHg 80%
    20:00 +2°C° 0 mm 1 mps 739 mmHg 81%
    21:00 +2°C° 0 mm 1 mps 739 mmHg 81%
    22:00 +2°C° 0 mm 1 mps 740 mmHg 82%
    23:00 +1°C° 0 mm 1 mps 740 mmHg 83%
    Show more